Other Public Products
Issued by NWS Grand Forks, ND

Home | Current Version | Previous Version | Graphics & Text | Print | Product List | Glossary On
Versions: 1 2 3 4 5 6 7 8 9 10 11 12 13 14 15 16 17 18 19 20 21 22 23 24 25 26 27 28 29 30 31 32 33 34 35 36 37 38 39 40 41 42 43 44 45 46 47 48 49 50
000
FPUS83 KFGF 240210
OPUFGF
PRAIRIE TO PINES WEATHER ROUNDUP
NATIONAL WEATHER SERVICE EASTERN NORTH DAKOTA/GRAND FORKS ND
900 PM CDT FRI JUN 23 2017

 **SATELLITE DATA USED TO AUGMENT SKY COVER AT AUTOMATED STATIONS**
 *****  WEATHER ACROSS EASTERN NORTH DAKOTA  *****

CITY           SKY/WX    TMP DP  RH WIND       PRES   REMARKS
GRAND FORKS    MOCLDY    58  41  53 NW16G24   29.96R
GRAND FORKS AF CLOUDY    57  38  48 NW12G22   29.98R
GRAND CITY NWS NOT AVBL
BUXTON         NOT AVBL
DEVILS LAKE    CLOUDY    56  39  53 NW16      30.02S
FARGO          CLOUDY    62  41  46 NW17G23   29.97R
WAHPETON ARPT  FAIR      59  37  44 NW17      29.98R
$$

 *****  WEATHER ACROSS CENTRAL AND WESTERN NORTH DAKOTA  *****

CITY           SKY/WX    TMP DP  RH WIND       PRES   REMARKS
JAMESTOWN      FAIR      58  38  47 NW21      30.04R
BISMARCK       FAIR      63  35  35 N15       30.10R
MINOT          FAIR      59  35  40 NW12      30.06S
MINOT AFB      FAIR      60  36  41 NW12      30.05S
GARRISON         N/A     58  34  40 NW14      30.09S
WILLISTON      CLOUDY    64  34  32 NW9       30.13R
DICKINSON      FAIR      60  27  28 N16       30.12S
HETTINGER      FAIR      62  29  28 NW14      30.16R
$$

 *****  OTHER OBSERVATIONS NORTHEAST NORTH DAKOTA  *****

CITY           SKY/WX    TMP DP  RH WIND       PRES   REMARKS
WALHALLA       NOT AVBL
LANGDON        CLOUDY    54  41  62 NW17G23   29.98S
CAVALIER       CLOUDY    57  41  54 W13       29.95S
GRAFTON        CLOUDY    57  41  54 NW15G21   29.98R
CANDO          NOT AVBL
FORT TOTTEN      N/A     56  39  53 NW10      29.95S
ROLLA            N/A     52  37  58 NW17G23   30.02S
RUGBY          NOT AVBL
 ***** THE ABOVE OBSERVATIONS ARE NON NWS ARE NOT QUALITY
        CONTROLLED AND MAY MIS-REPORT RAIN FOR SNOW...
$$

 *****  OTHER OBSERVATIONS SOUTHEAST NORTH DAKOTA *****

CITY           SKY/WX    TMP DP  RH WIND       PRES   REMARKS
COOPERSTOWN    MOCLDY    57  37  47 NW18G30   30.02R
VALLEY CITY    CLOUDY    59  41  51 NW21      30.03R
OAKES          NOT AVBL
GWINNER        PTCLDY    59  41  51 NW10G17   30.01S
BUFFALO        NOT AVBL
WYNDMERE       NOT AVBL
 ***** THE ABOVE OBSERVATIONS ARE NON NWS ARE NOT QUALITY
       CONTROLLED AND MAY MIS-REPORT RAIN FOR SNOW...
$$

  *****  WEATHER ACROSS NORTHERN MINNESOTA  *****

CITY           SKY/WX    TMP DP  RH WIND       PRES   REMARKS
FLAG ISLAND    CLOUDY    55  50  82 W16       29.85S
WARROAD        CLOUDY    55  48  76 NW13      29.90R
ROSEAU           N/A     55  48  76 NW8       29.91R
HALLOCK        CLOUDY    57  43  58 NW12G18   29.93S
THF RVR FALLS  CLOUDY    58  41  53 W15G22    29.94R
HALSTAD        NOT AVBL
FOSSTON        MOCLDY    55  43  62 NW12G20   29.94R
BAUDETTE       CLOUDY    55  49  80 NW16G22   29.87S
WASKISH        CLOUDY    55  48  76 NW10G16   29.90R
CROOKSTON      MOCLDY    57  43  58 NW14G23     N/A
$$
  *****  WEATHER ACROSS CENTRAL AND WEST MINNESOTA  *****

CITY           SKY/WX    TMP DP  RH WIND       PRES   REMARKS
BEMIDJI        FAIR      55  46  72 NW7       29.91R
PARK RAPIDS    FAIR      59  44  57 NW10      29.91R
WADENA         FAIR      57  45  62 NW5       29.92S
DETROIT LAKES  FAIR      59  41  51 NW14      29.95R
MOORHEAD       MOCLDY    61  39  44 NW16G23   29.97R
FERGUS FALLS   MOCLDY    61  43  51 NW10      29.94R
ELBOW LAKE     CLOUDY    61  42  49 W14G23    29.96S
MORRIS MN      FAIR      63  43  48 NW10      29.95S
STAPLES        FAIR      57  45  62 NW9       29.92R
WHEATON        FAIR      63  39  42 NW9       29.99R
$$
  *****  WEATHER ELSEWHERE ACROSS MINNESOTA  *****

CITY           SKY/WX    TMP DP  RH WIND       PRES   REMARKS
DULUTH         MOCLDY    58  52  80 NW14      29.82R
INTRNTL FALLS  LGT RAIN  55  51  86 W14G21    29.84R FOG
ELY            LGT RAIN  55  52  88 W9G17     29.80R
CLOQUET        HVY RAIN  57  52  82 NW12G22   29.84R
BRAINERD       CLOUDY    60  47  61 NW9       29.90R
HIBBING        CLOUDY    56  50  80 W9        29.84R
ALEXANDRIA     FAIR      58  47  66 NW7       29.95S
SAINT CLOUD    CLOUDY    62  49  62 NW14G24   29.91R
MINNEAPOLIS    MOCLDY    66  50  56 NW20G28   29.88R
$$

  *****  WEATHER ACROSS SOUTH DAKOTA  *****

CITY           SKY/WX    TMP DP  RH WIND       PRES   REMARKS
SIOUX FALLS    FAIR      63  41  44 NW13      30.03R
BROOKINGS      FAIR      60  40  47 NW12      30.03R
WATERTOWN      FAIR      60  42  51 NW14      30.02R
HURON          FAIR      59  43  55 NW8       30.06R
SISSETON         N/A     62  40  44 NW13      29.99R
ABERDEEN       FAIR      63  38  39 N15G23    30.05R
MITCHELL       FAIR      65  37  35 N13       30.07R
PIERRE         FAIR      65  36  34 NW13      30.09S
MOBRIDGE       FAIR      66  33  29 NW16      30.07R
RAPID CITY     FAIR      64  27  24 N17       30.20R
$$

  *****  SOME WEATHER IN NEARBY STATES *****

CITY           SKY/WX    TMP DP  RH WIND       PRES   REMARKS
GLASGOW MT     FAIR      66  29  24 NW20G29   30.18R
GREAT FALLS MT CLOUDY    63  35  35 N10       30.27R
CHEYENNE WY    MOCLDY    60  39  45 E5        30.29R
SCOTTSBLUFF NE FAIR      68  28  22 N15       30.21R
OMAHA NE       FAIR      68  50  52 NW9       30.03R
DES MOINES IA  FAIR      67  51  56 NW6       29.97R
DAVENPORT IA   FAIR      66  57  72 NW9       29.88R
CHICAGO IL     FAIR      73  54  51 W13       29.76R
EAU CLAIRE WI  MOCLDY    64  53  67 NW9       29.83R
LA CROSSE WI   CLOUDY    70  57  63 NW7       29.83R
$$

  *****  SOME NATIONAL WEATHER *****

CITY           SKY/WX    TMP DP  RH WIND       PRES   REMARKS
LA GUARDIA NY  CLOUDY    79  74  84 SW9       29.64R
RALEIGH NC     FAIR      83  71  67 S13       29.86S
ATLANTA GA     MOCLDY    74  72  93 W13       29.98F
NEW ORLEANS LA FAIR      82  78  88 S8        29.94R HX  91
OKLAHOMA CITY  MOCLDY    81  53  37 NE14      29.99R
ALBUQUERQUE NM FAIR      84  53  34 E22       30.04R
SALT LAKE CITY   N/A     84  27  12 NW6       30.10
LOS ANGELES CA CLOUDY    65  61  87 W13       29.91R
BOISE ID       FAIR      81  27  14 W12       30.10S
SEATTLE WA     FAIR      78  49  35 N14       30.15S
$$

*** WEATHER ACROSS MANITOBA...SASKATCHEWAN AND ONTARIO ***
                ***ONTARIO***

CITY           SKY/WX    TMP DP  RH WIND       PRES   REMARKS
GERALDTON      PTCLDY    55  52  88 NW5       29.67R
THUNDER BAY    PTCLDY    59  54  82 W6        29.69R
SIOUX LOOKOUT  MOCLDY    57  54  88 W6        29.74R
TORONTO        MOCLDY    72  63  73 NW12G18   29.58R
BIG TROUT LK   CLEAR     57  48  72 N10       29.77R
PICKLE LAKE    MOCLDY    61  45  55 NE6       29.73R
DRYDEN         LGT RAIN  54  54 100 W10G17    29.78R
KENORA         LGT RAIN  54  50  87 NW9       29.83S
$$
                *** MANITOBA***

CITY           SKY/WX    TMP DP  RH WIND       PRES   REMARKS
BRANDON        PTCLDY    54  41  62 NW20      29.98F
DAUPHIN        CLOUDY    52  48  87 NW7       29.97S
ISLAND LAKE    PTCLDY    54  43  66 NE10G21   29.90R
PILOT MOUND      N/A     52  39  62 NW12G21     N/A
THE PAS        LGT RAIN  48  46  93 N15       30.05R FOG
THOMPSON       MOCLDY    57  37  47 NE9       30.00R
WINNIPEG       MOCLDY    55  48  76 NW12      29.91S
LYNN LAKE      CLOUDY    54  36  50 N13G20    30.09R
CHURCHILL      PTCLDY    50  37  62 NE5       30.02S
GILLAM         MOCLDY    54  37  54 E7        30.00R
$$
                ***SASKATCHEWAN***

CITY           SKY/WX    TMP DP  RH WIND       PRES   REMARKS
ESTEVAN        MOCLDY    54  39  58 N14G22    30.09R
KINDERSLEY     MOSUNNY   63  39  42 N14       30.17R
LLOYDMINSTER   MOSUNNY   64  37  36 NW10G17   30.17R
PRINCE ALBERT  MOSUNNY   50  43  76 E8        30.20R
REGINA         PTCLDY    52  36  54 N14G28    30.13S
YORKTON        MOCLDY    50  41  71 NW15G21   30.05R
N. BATTLEFORD  SUNNY     63  37  39 N12       30.17R



USA.gov is the U.S. government's official web portal to all federal, state and local government web resources and services.